Big Delta, AK

3:11 PM AKST on November 21, 2017 (GMT -0900)
Allen Army Air Field

Weather History for PABI - August, 2014

Change the Weather History Date:

Sunday, August 17, 2014

  Actual Average Record
Temperature  
Mean Temperature 56 °F -  
Max Temperature 62 °F 61 °F 80 °F (2004)
Min Temperature 51 °F 44 °F 41 °F (1998)
Degree Days  
Heating Degree Days 8    
Growing Degree Days 6 (Base 50)    
Moisture  
Dew Point 46 °F    
Average Humidity 77    
Maximum Humidity 97    
Minimum Humidity 44    
Precipitation  
Precipitation 0.12 in - - ()
Sea Level Pressure  
Sea Level Pressure 29.62 in    
Wind  
Wind Speed 10 mph (ESE)    
Max Wind Speed 17 mph    
Max Gust Speed 30 mph    
Visibility 10 miles    
Events Rain    
Averages and records for this station are not official NWS values.
T = Trace of Precipitation, MM = Missing Value Source: NWS Daily Summary

Daily Weather History Graph

Daily Weather History Graph

Search for Another Location

Airport or City:

Trip Planner

Search our weather history database for the weather conditions in past years. The results will help you decide how hot, cold, wet, or windy it might be!

Date:

Astronomy

Aug. 17, 2014 Rise Set
Actual Time 5:41 AM AKDT 9:49 PM AKDT
Civil Twilight 4:39 AM AKDT 10:51 PM AKDT
Nautical Twilight 2:39 AM AKDT 12:43 AM AKDT
Astronomical Twilight Sun does not rise Sun does not rise
Moon 11:28 PM AKDT (8/17) 4:31 PM AKDT (8/17)
Length of Visible Light 18h 12m
Length of Day
16h 08m
Waning Gibbous, 47% of the Moon is Illuminated
Aug 17
Waning Gibbous
Aug 25
New
Sep 2
First Quarter
Sep 8
Full
Sep 15
Last Quarter

Hourly Weather History & Observations

Time (AKDT) Temp. Dew Point Humidity Pressure Visibility Wind Dir Wind Speed Gust Speed Precip Events Conditions
12:53 AM 57.9 °F 37.0 °F 46% 29.64 in 10.0 mi SSE 16.1 mph 29.9 mph N/A   Clear
1:53 AM 59.0 °F 37.0 °F 44% 29.63 in 10.0 mi SE 17.3 mph 25.3 mph N/A   Clear
2:53 AM 53.1 °F 37.9 °F 57% 29.64 in 10.0 mi East 10.4 mph - N/A   Clear
3:53 AM 52.0 °F 37.9 °F 59% 29.64 in 10.0 mi ESE 12.7 mph 19.6 mph N/A   Clear
4:53 AM 52.0 °F 37.9 °F 59% 29.63 in 10.0 mi East 8.1 mph - N/A   Clear
5:53 AM 52.0 °F 39.0 °F 61% 29.63 in 10.0 mi East 8.1 mph - N/A   Mostly Cloudy
6:53 AM 52.0 °F 39.0 °F 61% 29.62 in 10.0 mi ESE 9.2 mph - N/A   Mostly Cloudy
7:53 AM 54.0 °F 41.0 °F 62% 29.62 in 10.0 mi SE 8.1 mph - N/A   Mostly Cloudy
8:53 AM 57.9 °F 41.0 °F 53% 29.60 in 10.0 mi East 10.4 mph - N/A   Mostly Cloudy
9:53 AM 57.0 °F 43.0 °F 59% 29.59 in 10.0 mi ESE 11.5 mph - N/A   Mostly Cloudy
10:53 AM 60.1 °F 44.1 °F 55% 29.57 in 10.0 mi East 9.2 mph - N/A   Mostly Cloudy
11:53 AM 60.1 °F 43.0 °F 53% 29.57 in 10.0 mi ESE 6.9 mph - N/A   Mostly Cloudy
12:53 PM 61.0 °F 44.1 °F 54% 29.57 in 10.0 mi SE 5.8 mph - 0.00 in   Overcast
1:53 PM 61.0 °F 45.0 °F 56% 29.57 in 10.0 mi SE 10.4 mph - 0.00 in Rain Light Rain
2:53 PM 57.9 °F 46.0 °F 65% 29.59 in 10.0 mi ESE 12.7 mph - 0.00 in Rain Light Rain
3:53 PM 54.0 °F 48.9 °F 83% 29.61 in 10.0 mi East 9.2 mph - 0.02 in Rain Light Rain
4:53 PM 53.1 °F 51.1 °F 93% 29.62 in 9.0 mi East 6.9 mph - 0.04 in Rain Light Rain
5:30 PM 53.1 °F 51.1 °F 93% 29.61 in 10.0 mi East 6.9 mph - 0.02 in Rain Light Rain
5:53 PM 53.1 °F 51.1 °F 93% 29.62 in 7.0 mi East 8.1 mph - 0.03 in Rain Light Rain
6:18 PM 53.1 °F 51.1 °F 93% 29.61 in 4.0 mi East 5.8 mph - 0.02 in Rain Light Rain
6:27 PM 53.1 °F 50.0 °F 89% 29.61 in 5.0 mi East 4.6 mph - 0.03 in Rain Light Rain
6:34 PM 52.0 °F 50.0 °F 93% 29.61 in 8.0 mi East 6.9 mph - 0.03 in Rain Light Rain
6:53 PM 52.0 °F 50.0 °F 93% 29.63 in 9.0 mi East 5.8 mph - 0.04 in Rain Light Rain
7:18 PM 52.0 °F 50.0 °F 93% 29.61 in 6.0 mi ESE 4.6 mph - 0.02 in Rain Light Rain
7:30 PM 52.0 °F 51.1 °F 97% 29.61 in 10.0 mi East 4.6 mph - 0.02 in   Overcast
7:53 PM 52.0 °F 50.0 °F 93% 29.63 in 10.0 mi NE 4.6 mph - 0.02 in Rain Light Rain
8:12 PM 52.0 °F 50.0 °F 93% 29.62 in 10.0 mi ENE 3.5 mph - 0.00 in Rain Light Rain
8:39 PM 52.0 °F 50.0 °F 93% 29.62 in 10.0 mi North 4.6 mph - 0.00 in Rain Light Rain
8:48 PM 51.8 °F 50.0 °F 94% 29.62 in 10.0 mi NNW 3.5 mph - 0.00 in Rain Light Rain
8:53 PM 51.1 °F 50.0 °F 96% 29.64 in 10.0 mi NW 3.5 mph - 0.00 in Rain Light Rain
9:24 PM 51.1 °F 50.0 °F 96% 29.63 in 10.0 mi WNW 3.5 mph - 0.00 in Rain Light Rain
9:53 PM 51.1 °F 50.0 °F 96% 29.65 in 10.0 mi WNW 3.5 mph - 0.00 in   Overcast
10:25 PM 51.1 °F 50.0 °F 96% 29.64 in 10.0 mi West 3.5 mph - N/A   Overcast
10:53 PM 52.0 °F 50.0 °F 93% 29.66 in 10.0 mi WSW 9.2 mph - N/A   Overcast
11:05 PM 51.1 °F 50.0 °F 96% 29.65 in 10.0 mi WSW 8.1 mph - 0.00 in Rain Light Rain
11:53 PM 51.1 °F 48.9 °F 92% 29.68 in 10.0 mi SW 9.2 mph - 0.00 in   Overcast